RH
90 84 78 75 79 84 82 76 75 75 74 73 74 76 80 84 84 83 84 82 81 80 82 85 87 87 86 88 85 82 80 82 80 79 83 82 82 81 79 81 84 84 78 85 89 90 89 87 81 73 65 61 59 58 59 60 55 51 48 52 55 58 59 58 58 58 58 64 66 66 66 67 69 71 74 79 83 85 84 83 82 81 80 79 78 76 76 78 81 83 84 85 87 88 89 89 89 88 87 87 85 82 81
90 84 77 74 78 83 82 79 79 79 78 78 79 80 82 84 83 80 80 79 79 79 81 85 85 83 79 84 86 86 84 83 81 79 81 84 86 86 85 83 84 83 81 87 90 90 89 87 82 76 69 64 61 58 56 55 54 54 53 57 59 60 60 60 59 58 57 63 67 69 68 67 67 67 68 72 78 83 86 86 85 85 85 86 85 83 81 80 80 81 83 82 83 84 84 86 87 86 87 87 86 84 82
86 83 80 77 80 83 80 82 82 81 79 80 82 85 86 84 80 77 79 78 80 82 79 80 82 83 81 81 84 87 86 85 83 80 76 78 83 86 86 88 86 84 85 89 90 90 89 87 84 78 72 67 62 59 55 52 52 52 54 57 60 62 62 62 61 60 58 61 67 72 71 69 68 68 67 68 72 78 83 86 86 84 84 86 86 85 85 81 80 80 80 79 79 80 81 81 83 86 88 86 84 82 81
82 81 85 85 85 84 80 83 83 82 82 82 83 85 87 81 77 74 75 78 79 80 81 79 80 81 81 83 84 85 85 83 82 80 76 72 76 82 86 86 87 89 92 92 92 91 90 87 82 77 71 66 61 57 53 50 48 48 50 54 58 61 63 64 63 63 62 67 72 75 74 72 70 69 69 69 71 74 78 83 83 82 83 83 83 83 81 81 80 79 76 78 78 79 80 80 81 81 82 85 85 83 80
85 82 85 87 87 85 82 83 84 83 83 81 80 80 84 81 78 77 79 80 81 81 81 82 83 84 81 81 82 83 82 82 81 79 76 73 73 75 83 86 90 93 94 94 93 92 89 84 78 72 68 63 59 56 53 51 49 47 44 46 49 53 57 61 63 64 64 68 72 74 74 72 71 71 70 71 72 73 76 78 80 81 80 79 79 80 80 83 83 81 80 80 80 81 80 81 80 79 76 78 83 86 84
88 85 84 85 85 84 81 76 75 74 73 74 75 76 79 80 81 82 81 80 80 81 83 84 84 82 79 76 76 78 79 78 76 74 75 75 72 69 70 78 85 90 93 93 92 89 87 80 74 68 65 61 59 56 54 54 54 52 50 47 45 45 46 51 56 60 64 68 71 73 73 72 72 72 72 73 73 74 75 77 78 79 80 80 80 79 80 83 84 84 83 81 81 81 82 81 82 82 77 77 81 85 85
87 84 81 81 79 76 72 69 68 68 68 70 72 74 76 77 77 75 74 76 78 80 80 80 80 78 77 73 70 69 70 71 73 75 74 73 69 65 61 66 74 81 86 87 86 85 83 79 73 67 63 60 57 55 54 54 55 55 55 54 53 52 51 50 50 53 59 65 69 72 72 72 71 72 73 74 75 76 76 77 77 78 80 81 82 82 82 82 83 84 83 82 81 81 81 79 77 77 77 79 82 84 84
85 82 80 78 74 69 65 68 72 76 79 78 76 75 75 73 72 72 73 76 77 77 76 73 71 70 67 65 62 60 59 61 63 66 72 69 69 68 66 64 65 67 70 73 75 75 75 74 70 65 60 57 55 53 52 53 54 55 56 57 58 58 58 56 53 51 51 59 65 70 72 72 71 71 72 74 76 78 78 79 79 80 81 81 81 82 82 81 80 80 80 81 82 82 81 79 80 80 78 80 81 82 83
87 85 83 80 75 70 68 72 77 82 83 83 81 79 76 74 73 73 74 74 73 71 66 64 61 59 56 56 55 55 55 57 64 70 69 70 72 74 75 69 65 61 59 58 58 58 60 62 61 59 56 54 53 53 54 55 56 58 60 60 61 60 60 58 55 51 48 53 61 69 73 73 73 72 72 73 75 78 80 80 81 81 82 82 83 83 83 83 81 79 79 81 82 82 80 79 79 79 80 81 81 80 81
86 85 83 82 78 73 68 71 76 80 81 80 79 77 75 74 74 73 72 71 69 67 64 61 60 61 62 59 56 55 58 63 67 70 73 73 72 72 74 73 71 68 64 61 59 57 56 57 57 56 55 55 56 57 58 60 61 63 64 63 62 61 59 58 55 51 47 48 55 64 71 73 74 74 74 74 75 76 78 80 81 82 82 83 84 84 85 85 84 83 81 82 82 82 80 79 78 78 79 82 83 83 83
79 80 81 80 77 74 69 69 71 73 75 75 74 73 72 72 70 68 65 64 63 62 61 62 63 64 66 60 57 56 58 59 62 67 73 73 72 70 70 69 68 66 65 64 63 62 62 61 60 60 60 60 61 62 63 64 65 65 65 63 61 59 57 56 55 52 50 48 53 60 67 73 76 76 76 76 76 76 77 79 80 82 83 83 84 85 86 86 86 86 86 85 84 83 81 81 80 77 75 79 82 84 84
71 71 71 72 72 72 71 70 70 71 71 71 70 69 68 67 65 63 62 63 64 64 64 64 64 62 60 59 60 61 62 64 66 68 69 70 69 69 68 67 67 66 65 65 64 63 63 63 63 63 64 64 66 66 67 68 68 67 65 63 61 59 57 56 55 55 54 52 54 60 66 73 77 78 77 77 77 77 76 77 78 80 81 82 82 83 85 86 86 87 87 87 86 85 83 83 80 77 74 77 80 82 83
63 64 66 69 71 72 71 69 68 67 67 66 66 65 64 63 63 65 67 70 71 71 70 67 64 64 64 66 67 68 69 70 71 71 71 71 71 71 70 70 70 69 69 69 68 68 67 66 67 67 68 68 69 69 70 70 69 68 67 66 64 63 61 60 59 59 59 57 58 61 64 72 77 79 79 79 78 77 76 76 77 78 79 81 81 82 83 84 85 86 86 87 87 87 86 83 82 79 76 77 77 78 80
58 61 66 68 69 68 66 65 64 64 64 64 64 65 65 66 68 71 74 75 76 75 73 71 70 70 71 71 72 73 73 73 73 73 73 72 72 71 71 70 70 69 70 71 71 70 70 70 70 70 70 71 71 71 71 71 70 70 69 68 68 67 67 66 65 64 64 64 65 66 70 75 78 80 81 79 78 77 76 77 77 78 80 81 82 83 84 85 86 87 87 87 87 87 87 86 84 81 79 79 80 80 80
60 64 68 68 66 64 62 63 63 64 65 66 67 68 69 71 73 75 76 76 75 74 73 73 73 73 73 73 73 74 74 74 74 73 73 72 71 70 70 69 69 69 70 70 70 70 69 70 70 70 70 70 70 70 70 71 70 70 69 69 69 69 69 69 70 71 72 75 77 80 83 85 84 83 83 81 79 78 78 78 78 79 81 82 82 83 85 86 87 87 88 89 89 88 89 87 86 85 83 82 82 82 82
67 69 70 66 63 61 61 63 65 66 68 68 69 70 72 73 74 75 76 76 75 74 74 74 73 73 73 73 73 74 74 73 73 72 72 71 71 70 70 69 69 70 70 69 69 69 68 69 69 69 69 69 69 69 69 70 69 69 69 69 69 70 70 72 75 79 83 86 87 86 87 86 85 85 84 83 82 82 82 82 82 82 82 83 84 85 86 86 86 86 88 89 90 90 91 90 88 87 86 85 84 84 84
69 68 65 62 61 61 63 66 67 68 69 70 71 71 72 73 74 75 76 76 76 75 75 74 74 73 73 73 73 73 73 72 72 72 71 71 71 70 70 70 70 70 70 69 69 68 68 68 68 68 68 68 69 69 69 69 69 69 68 68 69 69 71 73 77 82 86 85 84 83 82 82 81 81 82 82 83 83 84 84 85 85 86 86 87 87 87 85 85 85 89 90 91 91 92 92 92 90 89 87 86 85 85
63 61 60 60 62 64 66 68 68 69 69 70 71 72 73 74 75 76 76 76 76 75 75 74 73 73 72 72 72 72 72 72 72 72 71 71 71 70 70 70 70 70 70 69 69 69 69 69 69 69 69 69 69 69 69 69 68 68 68 68 68 69 71 73 77 81 84 82 80 79 77 77 77 77 77 78 79 81 82 83 84 85 87 88 88 87 85 83 83 85 88 89 90 90 89 90 91 91 90 90 88 87 87
61 61 62 64 66 67 68 68 69 69 70 70 71 72 73 74 75 76 77 76 76 75 75 74 73 73 72 72 72 72 72 72 72 72 71 71 71 71 70 70 70 70 70 70 70 70 70 70 70 70 70 70 70 69 69 68 68 68 68 68 68 69 70 72 75 78 80 79 77 76 75 76 76 76 76 76 77 78 79 80 82 84 85 86 86 85 83 82 82 83 84 85 86 87 87 87 87 88 89 90 90 90 89
66 66 67 68 68 68 68 68 69 69 70 70 71 72 73 75 76 76 77 76 76 75 75 74 73 73 73 73 73 73 72 72 72 71 71 71 71 71 71 70 70 70 70 70 70 70 70 71 71 71 71 70 70 69 69 68 68 68 68 68 68 69 69 71 73 76 77 77 76 75 75 76 76 77 77 77 77 77 77 78 79 81 81 82 81 80 80 81 81 81 81 82 82 83 84 85 85 87 87 88 89 90 90
68 68 68 68 68 68 68 68 69 69 70 71 72 73 74 75 76 76 77 76 76 75 75 74 74 73 73 73 73 73 72 71 71 70 70 70 69 69 70 69 69 69 68 68 68 68 69 70 70 70 70 70 69 69 68 68 68 68 68 68 68 68 69 69 71 73 74 75 75 75 75 75 76 76 77 77 77 77 77 77 77 77 78 78 79 80 80 80 80 79 80 80 80 80 81 82 83 84 85 85 87 88 88
71 71 70 70 70 69 69 69 69 70 71 71 72 74 75 76 76 77 77 76 76 75 74 74 74 74 74 74 73 72 71 70 69 68 68 68 68 68 68 68 68 67 66 66 66 66 67 68 68 68 68 68 68 68 68 68 68 68 68 68 68 68 68 68 70 71 73 74 74 74 74 74 74 75 75 76 76 76 76 77 77 77 79 79 81 82 82 79 78 78 79 79 80 80 81 81 82 82 83 87 87 87 88
72 72 71 71 71 70 70 70 70 71 71 72 73 74 75 76 76 76 76 76 76 75 74 74 74 74 74 73 73 71 69 68 68 67 66 66 67 67 67 67 66 65 65 64 64 64 64 65 66 66 66 67 67 67 67 67 67 67 67 67 67 67 67 68 69 70 72 72 72 73 72 73 73 73 74 75 75 75 75 76 77 78 79 80 81 82 81 79 78 79 80 81 82 82 83 82 82 82 84 86 86 86 88
72 72 71 71 71 71 71 71 71 71 72 73 74 75 76 76 76 76 76 76 75 74 74 74 74 73 73 72 70 69 68 67 66 66 65 65 65 65 64 64 63 62 61 61 60 60 60 61 62 63 64 65 66 67 68 68 67 67 67 67 67 67 67 68 68 69 70 70 71 72 72 73 73 73 73 73 73 74 74 75 76 77 79 80 80 80 81 80 79 80 81 82 82 83 82 82 82 82 83 84 84 84 84
73 72 72 72 72 72 72 72 72 73 74 75 76 77 77 77 76 75 74 74 74 73 73 73 72 71 69 68 67 66 65 65 64 64 63 62 61 60 60 59 58 57 56 55 55 55 55 55 56 57 59 60 62 63 64 65 66 66 66 66 66 66 66 67 67 68 70 71 73 73 73 73 72 72 72 72 72 73 74 74 75 76 77 79 80 80 80 80 79 79 80 81 82 82 82 81 81 82 83 83 84 84 84
74 74 73 73 73 73 73 73 74 75 76 76 78 79 79 77 75 73 72 72 72 71 71 70 68 67 64 63 62 62 62 62 61 60 59 57 56 56 55 55 54 53 52 51 50 50 49 49 49 49 50 51 52 53 55 56 58 59 59 60 60 60 60 59 59 60 62 68 72 74 75 74 74 73 72 72 72 72 72 73 74 75 76 77 78 78 78 80 80 80 79 80 81 82 82 82 82 83 84 85 85 85 85
73 73 73 73 73 74 74 75 76 77 78 79 80 79 78 76 73 71 71 70 69 68 68 66 64 62 59 58 58 58 58 58 57 57 55 53 52 52 51 51 50 50 49 48 47 46 45 44 43 43 42 42 42 43 45 47 47 47 48 48 48 48 48 48 48 49 51 58 64 70 72 73 74 74 74 73 72 72 72 73 73 73 74 74 75 76 77 78 79 79 78 77 78 79 79 80 82 84 85 87 87 87 86
72 73 74 75 75 76 76 76 77 78 78 78 77 75 73 72 70 69 68 67 66 64 64 62 59 57 55 55 55 55 55 55 54 53 52 51 50 49 48 48 47 47 46 45 44 43 42 41 39 38 37 37 36 37 39 40 40 39 40 40 40 40 41 41 42 42 43 46 51 57 65 67 69 70 73 74 75 74 73 72 71 71 71 72 73 75 77 79 80 81 81 80 77 75 74 75 77 79 82 83 83 83 84
76 76 76 76 76 76 76 75 75 74 73 72 70 68 67 68 67 65 64 63 61 60 59 57 55 53 52 52 53 53 53 53 52 52 51 50 48 47 45 45 44 44 43 43 42 41 39 38 36 35 34 34 34 34 34 35 35 35 36 36 37 38 39 40 40 40 40 40 42 46 54 58 60 62 64 66 69 72 73 74 73 73 74 77 79 82 85 88 90 91 93 93 90 86 82 80 78 78 78 77 77 78 79
76 76 77 76 75 74 73 72 70 68 66 65 64 62 61 62 62 61 59 58 56 55 55 53 52 51 51 51 50 50 50 49 49 49 49 47 46 44 43 42 42 41 41 40 39 38 37 36 35 33 32 32 31 31 32 32 32 33 33 34 35 36 37 38 39 39 38 38 38 40 44 48 51 53 56 60 63 67 71 74 77 80 83 87 90 91 91 91 91 91 92 94 94 93 90 84 78 73 70 70 72 75 78
77 77 75 73 72 70 68 66 65 63 63 60 58 56 55 56 56 56 54 52 52 51 51 50 49 49 48 47 46 45 45 45 45 45 44 43 42 41 40 39 39 39 38 38 37 36 35 34 33 31 30 29 29 29 29 30 30 31 31 32 33 34 35 36 36 36 35 35 34 35 37 39 43 47 52 56 60 64 67 69 72 76 78 81 82 82 81 82 82 81 80 82 85 87 86 77 68 62 63 67 73 78 82
76 74 72 70 68 65 62 61 61 59 56 54 52 51 50 50 50 49 48 47 47 47 46 46 45 44 43 42 41 40 39 39 39 39 38 38 37 37 36 36 36 36 36 36 35 34 34 32 30 29 28 28 27 27 28 29 30 30 31 31 32 32 33 33 33 33 32 32 31 31 32 33 35 39 46 51 56 59 60 61 61 62 63 63 63 62 62 62 63 65 67 67 70 74 75 72 67 64 65 69 74 79 82
71 69 67 65 62 59 57 57 56 53 51 50 49 47 46 46 45 45 44 44 43 43 43 41 40 38 37 36 35 34 34 34 34 33 33 33 33 33 33 33 33 33 33 32 32 31 30 29 28 27 26 26 26 26 27 29 30 31 31 30 30 30 30 30 30 30 30 30 30 30 30 31 31 32 34 42 47 50 51 51 52 53 54 54 54 53 52 52 52 53 55 55 56 59 63 66 67 67 68 71 73 76 80
66 63 60 59 57 56 55 53 51 50 49 48 46 46 45 45 44 43 43 42 41 40 39 37 35 33 31 30 29 29 29 29 29 29 29 29 29 29 29 29 29 29 28 28 27 26 26 25 25 25 25 25 26 26 28 30 30 30 30 29 29 28 28 29 29 29 29 29 29 29 29 30 30 30 29 34 38 42 44 46 48 50 51 52 52 52 52 52 52 52 53 54 55 55 56 58 60 61 63 65 67 71 77
59 56 54 54 53 52 52 50 48 47 47 46 45 45 45 45 44 43 42 41 40 38 35 32 29 27 26 26 25 25 26 26 27 27 27 27 27 27 26 26 25 24 23 23 22 23 23 24 24 25 25 25 26 27 29 31 31 30 28 27 27 27 28 28 28 29 29 29 29 29 29 29 29 29 29 29 32 36 40 43 46 48 49 50 50 51 52 53 54 54 55 56 57 57 57 57 57 57 57 57 59 61 63
53 50 49 50 48 47 47 46 46 45 45 44 44 44 43 43 42 41 39 38 35 33 29 26 25 23 22 23 23 24 25 25 26 26 26 26 25 24 23 22 21 20 19 20 20 21 23 25 26 26 26 27 28 30 31 31 29 28 26 26 26 27 28 28 29 29 29 29 29 29 29 29 28 28 28 28 29 32 38 43 45 46 46 46 47 49 50 51 52 53 54 55 55 55 55 56 56 56 56 55 55 55 55
49 46 45 43 41 41 43 44 44 44 43 43 42 42 41 39 37 36 34 32 29 26 24 22 21 21 22 23 25 26 26 25 25 25 24 23 22 21 20 19 18 18 18 19 21 24 26 27 27 28 28 29 30 31 31 29 27 26 24 25 26 27 29 29 29 29 29 29 29 29 29 28 28 27 27 27 29 34 41 44 45 45 44 45 46 47 48 49 50 51 52 53 53 53 53 53 53 53 53 53 53 53 54
40 36 32 31 33 36 41 43 43 42 41 40 39 38 37 35 33 31 28 26 24 22 20 19 19 21 23 25 26 26 25 24 24 24 24 23 22 21 20 19 18 18 19 21 24 26 29 29 28 28 29 30 31 30 29 27 25 24 23 24 26 28 29 29 29 29 29 29 29 29 28 28 27 26 26 27 30 35 40 42 42 41 40 43 44 46 47 48 49 49 50 50 51 51 51 51 51 50 50 50 50 51 52
27 23 21 24 28 33 38 40 41 40 39 37 36 35 34 31 29 26 23 20 19 19 18 18 19 21 23 24 23 22 23 23 24 25 26 25 24 22 20 19 19 20 22 24 26 28 30 29 28 28 30 30 30 29 27 24 22 21 21 24 26 28 30 29 29 28 28 28 28 28 27 26 26 25 25 26 29 32 36 37 36 35 35 37 41 44 46 47 48 48 48 48 48 49 49 49 48 47 47 47 48 49 51
20 18 20 22 25 29 35 37 38 38 36 35 33 32 30 28 25 21 17 15 15 17 19 20 20 21 21 20 20 20 22 24 26 27 28 27 25 22 20 19 20 21 24 26 28 29 28 27 27 28 30 30 29 27 24 21 19 19 20 23 26 28 30 29 28 28 27 27 27 26 26 25 25 24 24 25 27 29 31 31 31 31 31 33 37 42 44 45 45 46 45 46 46 47 46 46 46 45 45 46 47 48 50
19 19 19 21 23 26 32 35 36 37 35 32 31 29 27 24 21 17 13 11 13 17 20 21 21 21 21 20 20 21 24 26 28 29 29 27 24 21 19 19 21 23 26 27 28 28 26 26 27 28 30 29 26 24 21 18 17 17 19 22 26 28 29 28 27 26 26 26 26 25 24 24 23 23 23 24 25 26 27 27 27 27 28 30 35 39 41 42 43 43 43 43 44 45 44 44 43 44 45 46 47 49 51
19 19 19 20 21 23 28 32 35 35 34 30 28 26 23 20 17 14 10 9 12 17 20 21 21 21 21 21 23 25 27 28 29 30 29 26 22 19 19 20 22 25 27 27 27 26 25 25 27 28 29 26 24 21 18 16 15 16 18 22 25 27 28 27 26 25 24 24 24 24 23 22 22 22 22 22 23 23 24 23 23 24 25 26 30 34 37 38 39 40 40 41 42 43 43 42 43 44 45 46 48 50 52
19 19 19 19 19 22 26 30 32 33 32 28 26 23 20 17 14 10 8 9 12 15 18 20 21 21 21 22 25 28 30 31 31 30 29 25 22 20 20 22 24 26 27 26 25 24 24 25 27 28 27 24 22 19 16 14 14 16 19 23 25 26 26 25 24 23 23 23 23 22 22 21 21 21 21 21 21 21 21 21 21 21 21 22 25 27 30 33 36 37 39 40 41 42 42 43 43 44 46 47 49 51 52
19 18 18 18 18 20 24 28 30 30 28 26 23 20 17 14 11 9 8 10 12 15 18 20 21 21 21 24 26 29 32 33 33 31 29 26 23 22 22 23 25 26 27 26 24 23 23 25 26 27 25 22 20 17 14 13 14 17 20 23 24 25 24 23 22 21 21 21 21 21 21 20 20 20 19 19 19 19 19 19 18 18 18 19 20 22 24 28 31 34 37 39 41 42 43 43 44 45 46 48 50 51 51
19 18 17 17 17 19 23 26 28 27 25 23 19 16 14 12 10 9 10 12 13 15 17 19 21 22 22 24 27 30 33 34 34 33 31 28 26 25 25 24 25 26 27 26 23 22 22 24 26 25 22 20 18 15 13 12 14 17 19 21 22 23 22 21 20 19 19 19 19 19 19 19 19 19 18 18 18 18 17 17 17 17 16 17 17 18 21 24 27 31 35 38 40 42 43 43 44 46 48 49 49 49 49
19 18 17 17 17 19 23 26 27 25 23 20 16 13 12 11 10 10 11 13 14 16 17 19 20 21 23 24 26 30 33 34 34 34 33 31 30 28 26 25 25 26 27 25 22 20 21 24 24 23 21 19 17 14 12 13 15 17 19 20 21 21 20 19 19 18 18 18 18 19 19 19 19 19 18 18 18 18 17 17 16 16 16 17 17 18 20 23 27 31 35 38 41 42 43 43 45 47 48 48 48 47 47
19 18 17 16 17 19 23 25 26 24 21 17 14 12 12 12 12 12 12 13 15 17 18 19 20 22 23 24 26 30 34 35 35 35 35 34 32 30 28 26 25 24 25 23 20 19 20 23 23 21 20 18 15 13 12 15 17 19 20 21 21 21 20 19 18 18 18 18 19 19 19 19 19 19 19 19 19 19 18 18 18 18 18 19 19 20 22 25 28 32 35 39 41 43 43 44 45 46 47 46 46 45 45
18 17 16 15 16 19 22 25 25 23 19 16 14 14 15 15 15 15 15 15 17 18 20 21 22 23 25 25 27 31 34 36 36 37 37 35 33 31 28 26 24 23 22 21 19 18 19 22 22 20 19 17 15 14 16 18 20 22 22 22 22 21 21 20 20 20 20 20 20 20 20 20 20 20 20 19 19 19 19 20 20 20 20 21 21 22 23 25 27 29 33 38 41 43 43 44 45 45 45 44 43 43 44
17 16 14 14 15 18 22 24 24 21 18 16 16 17 18 17 17 16 16 16 18 19 20 22 23 25 27 28 29 32 35 36 37 37 37 36 34 31 28 25 23 21 20 19 18 18 19 21 21 19 18 17 16 17 19 21 22 22 23 23 22 22 21 21 21 21 21 21 21 21 21 21 20 20 20 20 20 20 20 21 22 22 22 22 22 23 24 25 26 27 29 35 40 42 43 43 43 43 43 43 42 43 44
17 15 13 13 15 18 22 23 23 21 18 18 18 18 18 16 16 16 16 17 18 19 20 21 24 27 29 30 31 33 35 36 37 37 37 36 36 35 30 26 23 20 18 18 17 17 18 20 19 18 18 18 19 20 22 22 22 22 22 22 22 22 22 22 22 22 22 22 22 22 21 21 21 21 20 20 21 21 21 22 22 23 23 23 23 24 25 25 26 27 27 32 36 39 41 41 41 41 42 42 42 42 44
15 14 13 13 14 18 21 23 22 21 20 19 18 17 15 15 14 15 16 17 18 20 20 22 25 27 28 30 31 33 35 36 37 38 39 38 37 35 33 31 26 21 18 18 17 16 18 18 18 18 19 20 21 22 22 22 22 22 22 22 22 22 22 23 23 23 22 22 22 22 22 22 21 21 21 21 21 22 22 22 22 23 23 23 24 25 26 27 27 27 27 28 30 33 35 37 39 41 41 42 42 43 46
14 12 11 12 15 18 21 22 22 21 21 19 16 14 14 14 15 16 17 18 20 21 22 23 25 26 27 28 29 31 34 35 36 38 42 39 35 31 29 34 29 23 21 19 17 16 15 15 17 19 21 22 22 22 22 22 22 22 22 23 23 23 23 23 23 23 23 23 23 22 22 22 22 22 22 23 23 23 23 23 23 23 23 24 25 26 27 28 28 27 27 26 26 27 28 33 37 41 43 43 43 45 49
13 11 10 12 15 18 22 21 21 21 20 17 15 14 15 16 17 17 17 18 19 20 22 24 25 26 26 26 28 30 32 34 35 37 39 37 33 30 31 32 28 25 25 22 20 18 17 17 18 20 22 22 22 22 22 22 23 23 23 24 24 24 24 23 23 23 23 23 23 23 24 24 24 24 24 24 24 24 24 24 24 24 24 25 26 27 28 28 27 27 26 25 25 25 26 30 37 42 44 44 45 47 51
13 10 9 11 15 19 22 22 21 21 21 20 19 18 18 18 18 17 16 16 17 18 20 23 24 25 27 28 29 30 31 32 33 35 37 35 34 33 35 33 32 33 38 30 23 18 19 21 23 23 22 22 21 22 22 23 23 24 24 25 25 24 24 24 24 24 24 24 24 25 25 25 25 26 26 26 26 26 25 25 25 25 25 26 26 27 28 28 27 27 26 26 26 27 28 32 38 44 46 46 46 48 50
14 12 10 11 14 18 23 25 25 25 26 25 24 22 21 20 19 18 17 17 17 17 18 20 22 25 28 31 32 31 30 29 31 33 35 35 34 34 38 40 38 36 39 34 26 21 21 24 25 24 21 20 20 21 22 23 24 25 25 25 25 25 24 24 24 25 25 25 26 26 26 27 27 28 28 28 27 27 26 26 25 26 26 26 27 27 28 27 27 26 26 27 28 29 31 34 40 45 46 46 46 47 49
16 14 13 12 13 17 23 27 28 29 29 28 26 25 25 23 20 18 17 17 17 17 17 18 20 23 27 31 32 32 30 28 29 31 33 34 34 34 34 36 34 30 26 24 23 24 26 28 29 26 20 19 20 22 23 24 24 25 25 25 25 25 25 25 26 26 26 27 27 27 28 28 29 29 29 29 28 27 27 26 26 26 27 27 27 27 27 27 26 26 27 28 29 31 33 35 40 45 44 45 45 47 48
19 18 16 14 14 15 18 24 28 29 29 28 27 27 26 23 19 17 17 18 18 18 17 17 18 20 24 27 30 31 30 29 28 29 31 33 33 33 33 33 34 34 33 29 29 29 30 31 29 26 21 21 21 22 23 24 25 25 25 25 25 25 26 26 26 27 27 28 28 29 29 30 30 30 30 29 28 28 27 27 27 27 27 27 27 27 27 26 26 27 27 29 31 32 33 35 39 43 43 44 46 47 49
20 20 19 18 17 16 15 19 24 28 28 28 27 26 25 21 19 18 19 19 19 19 18 17 17 18 21 23 25 27 29 31 32 31 30 31 32 33 33 33 33 33 30 33 34 35 37 36 33 30 26 25 24 23 24 24 24 24 24 25 25 26 26 27 28 28 29 29 30 30 31 31 31 31 30 30 29 28 28 27 27 27 27 27 27 27 27 26 26 27 27 29 31 32 33 34 37 41 43 45 47 48 49
21 21 21 21 20 18 16 17 20 23 25 25 24 23 21 20 20 20 21 21 21 20 18 17 17 17 18 20 22 24 27 31 33 34 32 31 32 33 34 33 33 32 32 32 32 33 38 39 37 34 32 29 27 25 24 24 24 24 24 25 26 26 27 28 29 29 30 30 31 31 31 31 31 31 30 30 29 28 28 28 28 28 28 27 27 27 26 26 26 26 27 29 31 32 31 31 35 41 45 47 48 49 48
22 22 22 22 21 20 18 16 17 18 20 20 19 19 20 21 22 22 22 22 21 20 18 17 16 16 17 18 20 23 27 30 32 34 35 35 34 34 34 34 33 32 31 31 30 30 32 35 37 37 36 34 31 29 26 25 24 24 25 25 26 27 28 29 29 30 30 31 31 31 32 32 31 31 30 30 29 29 28 28 28 28 28 27 27 26 26 26 26 27 28 31 31 31 30 32 37 43 48 49 49 48 46
21 22 22 22 22 21 19 17 16 16 17 17 18 19 21 22 23 23 22 22 21 19 18 17 16 16 16 17 19 22 26 28 30 32 35 37 37 36 35 34 33 33 32 31 30 30 30 31 32 34 37 39 37 33 29 27 26 25 25 26 27 28 29 30 30 30 30 31 31 31 32 32 31 31 30 29 29 29 29 29 29 28 28 27 26 26 25 26 26 28 30 31 30 30 30 35 42 47 49 49 48 46 46
Wind_Speed
6 6 6 5 5 7 7 6 4 2 1 1 1 1 2 3 3 4 5 6 6 6 6 6 6 6 6 6 7 8 8 9 9 10 10 10 10 10 9 9 9 10 10 10 10 11 12 13 15 15 15 14 13 13 12 12 11 10 10 10 10 9 8 8 8 9 10 12 13 13 13 13 14 14 15 15 15 15 15 15 15 15 15 15 15 16 16 16 16 16 16 16 17 16 16 15 15 15 16 16 16 17 17
7 7 5 4 5 6 7 6 4 3 2 2 2 2 2 3 4 5 6 6 6 6 6 6 7 7 8 9 9 9 10 10 10 10 10 10 10 10 10 10 10 10 11 11 11 12 13 15 16 16 16 14 13 13 12 12 11 11 11 11 11 10 10 9 9 10 10 12 13 14 14 14 14 14 15 15 15 15 15 15 14 14 15 15 15 15 16 16 17 17 17 17 17 18 18 17 17 17 17 16 16 17 17
7 6 5 4 4 6 6 5 4 4 3 3 3 3 4 4 5 5 6 6 6 6 6 7 7 8 9 10 11 11 11 11 11 11 11 11 11 10 11 11 11 11 12 12 13 13 14 15 16 17 16 15 14 13 12 12 11 11 11 12 12 12 11 11 11 11 11 11 12 14 15 15 14 14 15 15 15 15 15 15 15 15 15 15 15 15 16 16 17 17 18 18 18 18 18 19 18 18 18 17 18 18 18
7 5 4 3 4 5 5 4 4 4 4 4 4 4 5 5 5 6 7 7 7 7 8 8 9 10 10 11 11 11 12 12 12 12 12 12 11 11 10 10 11 12 12 13 14 14 15 16 17 17 17 15 14 13 12 11 11 11 12 12 13 13 13 13 13 13 12 12 13 14 15 15 15 15 15 15 15 16 16 16 16 16 16 16 16 16 17 17 17 18 18 18 19 19 19 19 19 19 19 19 19 19 19
5 4 3 3 4 5 5 4 4 4 5 4 4 5 6 6 7 7 8 8 8 9 9 10 10 11 11 11 12 12 12 12 12 12 12 12 12 12 11 11 11 12 12 13 14 15 16 17 17 17 17 16 15 14 13 12 12 12 12 13 13 14 14 15 15 14 14 14 14 14 15 15 15 15 15 15 16 16 16 16 17 17 17 17 17 17 17 18 18 18 19 19 19 19 19 20 20 20 20 20 20 20 20
5 4 3 3 4 5 5 5 4 4 5 4 4 5 6 7 8 9 9 9 10 10 11 11 12 12 12 12 12 12 12 12 12 12 12 12 12 12 12 12 12 12 13 13 14 15 16 17 17 17 17 17 16 16 15 14 14 14 13 13 14 14 15 16 16 16 16 16 15 15 15 15 15 15 15 16 16 16 17 17 17 17 17 17 17 18 18 18 18 19 19 19 20 20 20 20 20 20 21 21 21 21 21
6 5 5 4 5 5 5 5 5 5 5 5 5 6 7 9 9 10 10 11 11 12 12 12 12 12 12 12 12 12 12 12 12 12 12 12 12 13 13 13 13 14 14 14 15 16 16 17 18 18 18 18 18 17 17 17 17 17 16 16 15 15 16 16 17 17 17 17 16 16 16 16 16 15 16 16 16 17 17 17 18 18 18 18 18 18 18 18 19 19 19 20 20 20 21 21 21 21 21 21 22 22 22
6 6 6 6 6 5 5 5 6 6 7 7 7 8 9 10 10 11 12 12 12 12 13 13 13 13 12 13 12 12 12 12 12 12 12 12 12 13 13 14 15 15 16 16 17 17 17 18 19 19 19 19 19 18 18 18 18 18 18 18 18 17 17 16 17 17 18 17 17 17 17 17 16 16 16 17 17 17 17 18 18 18 18 18 18 18 19 19 19 20 20 20 21 21 21 21 21 21 22 22 22 23 24
6 7 7 7 7 6 6 6 6 7 8 9 9 9 10 11 12 12 12 13 13 13 13 13 13 13 13 13 12 12 12 12 12 12 12 12 12 13 14 15 15 16 17 17 18 18 18 19 20 20 20 20 19 19 19 18 18 19 19 19 19 18 17 16 16 16 16 17 17 17 17 17 17 17 17 17 17 18 18 18 18 18 18 18 19 19 19 19 19 20 20 21 21 21 22 22 22 22 22 22 23 23 24
7 7 8 8 8 8 7 7 7 8 9 10 10 11 11 12 12 12 12 13 13 13 13 13 13 12 12 12 12 12 12 12 12 12 12 13 13 14 14 15 16 16 17 17 17 18 18 19 19 20 20 19 19 19 19 19 19 19 19 19 18 17 16 15 15 14 15 16 17 17 17 18 18 18 18 18 18 18 18 18 18 19 19 19 19 19 19 19 19 20 20 21 21 22 22 22 23 23 23 23 23 23 24
7 8 8 9 9 9 9 8 8 9 9 10 11 11 11 12 12 12 12 12 12 12 12 12 12 12 12 11 11 11 11 11 12 12 12 13 13 14 14 15 15 16 16 16 16 16 17 17 18 18 18 18 17 17 18 18 18 18 18 17 16 15 15 14 14 14 14 15 16 17 17 18 18 18 18 18 18 18 18 18 18 19 19 19 19 19 19 20 20 20 20 20 21 22 22 23 23 24 24 24 24 24 24
8 8 8 9 9 9 8 8 9 9 9 9 10 10 11 11 11 11 10 10 10 10 10 10 10 10 9 9 10 10 10 10 11 11 11 12 13 13 13 14 14 14 14 14 14 14 15 15 15 16 16 16 16 17 17 17 17 17 16 15 14 13 13 13 13 13 14 15 16 16 17 18 19 19 19 19 19 18 18 19 19 19 19 20 20 20 20 20 20 20 21 21 21 22 22 23 23 24 24 25 25 25 25
8 8 8 8 8 8 8 8 8 8 8 8 8 9 9 9 8 8 8 9 9 9 9 8 8 8 8 8 8 8 9 9 10 10 11 11 12 12 12 12 12 12 11 11 12 12 13 14 14 15 15 16 16 17 17 17 17 16 15 14 13 12 11 12 12 13 13 14 15 16 17 18 19 20 20 20 19 18 19 19 19 19 20 20 20 21 21 21 21 22 22 22 22 22 22 23 23 24 24 25 25 25 25
8 8 8 7 7 6 6 6 6 6 6 6 6 6 6 6 6 7 8 8 8 8 7 7 7 7 7 8 8 8 9 9 10 10 10 11 11 11 11 10 10 10 10 10 11 12 13 13 14 15 15 16 16 17 17 17 17 17 16 15 14 13 12 12 12 12 13 14 15 16 17 17 18 20 20 20 19 19 19 19 19 20 20 20 21 21 21 21 22 22 22 23 23 22 22 23 23 24 24 24 25 25 26
8 8 8 7 6 5 4 4 4 4 4 4 5 5 5 5 6 7 8 9 8 8 7 7 7 8 8 9 9 9 9 10 10 10 11 10 10 10 10 10 9 9 10 10 11 12 13 14 14 15 16 16 16 17 17 17 17 17 17 17 16 15 15 14 14 14 15 16 17 17 18 19 19 19 20 20 20 20 20 20 20 20 20 21 21 21 21 21 22 23 23 23 23 23 23 23 23 23 24 24 25 25 25
8 8 7 6 5 3 3 2 2 3 3 4 4 5 5 6 7 8 9 9 8 8 8 8 8 9 9 10 10 10 10 10 11 11 11 11 11 11 10 10 10 10 11 12 13 13 14 15 15 15 16 17 17 17 18 18 18 19 19 18 18 17 17 17 17 17 18 18 18 19 19 19 19 19 20 20 20 20 20 21 21 21 21 21 21 21 21 22 22 23 24 24 24 24 24 24 24 24 24 25 25 25 25
6 6 5 4 3 3 2 2 2 3 3 4 5 5 6 7 8 8 9 9 9 8 8 9 9 10 10 10 10 10 11 11 11 11 11 11 12 12 12 12 12 12 13 13 14 14 15 15 16 16 17 18 18 19 19 19 20 20 20 20 19 19 19 18 18 18 18 18 18 18 19 19 19 19 19 19 20 20 20 21 21 22 22 22 22 21 21 22 23 24 24 24 24 24 24 24 24 24 25 25 25 25 25
4 4 3 3 3 2 3 3 3 3 4 4 5 6 6 7 8 9 9 9 9 9 9 9 10 10 10 11 11 11 12 12 12 12 12 12 13 13 13 13 13 14 14 15 15 15 16 16 17 17 18 19 19 19 20 20 20 21 21 21 20 20 20 19 19 18 18 18 18 18 19 19 19 19 20 20 20 20 20 21 22 22 22 22 22 21 21 23 24 24 24 24 24 24 25 25 25 25 26 26 26 26 26
2 2 2 2 2 3 3 4 4 4 4 4 5 6 7 8 8 9 9 9 9 9 9 10 10 10 11 11 11 12 12 12 12 13 13 13 13 13 13 13 14 14 14 15 15 16 16 16 17 18 18 19 19 20 20 20 21 21 21 21 21 21 20 20 19 19 18 18 18 19 19 20 20 20 20 20 20 20 20 21 21 22 22 22 22 22 22 24 25 25 25 24 24 25 26 26 26 27 27 27 27 27 27
2 2 2 2 3 3 4 4 5 5 5 4 5 6 7 8 8 9 9 9 9 9 9 10 10 11 11 11 12 12 13 13 13 13 13 13 13 13 13 13 14 14 15 15 16 16 16 16 17 18 18 19 19 20 20 20 21 21 21 21 21 21 21 21 20 19 18 18 19 19 20 20 20 20 20 21 21 21 21 21 21 21 22 22 22 23 24 25 26 26 26 25 25 26 26 26 27 27 27 27 27 28 28
2 2 2 3 3 4 4 5 5 5 5 4 5 6 7 8 8 8 8 8 9 9 9 10 10 11 11 12 12 13 13 12 13 13 13 13 13 13 14 14 15 15 15 16 16 17 17 17 17 18 18 19 19 20 20 20 21 21 21 21 21 21 21 21 21 20 19 19 19 20 20 20 20 20 20 20 21 21 21 21 21 22 22 22 23 23 24 25 26 26 26 26 25 25 25 25 26 26 26 27 27 28 28
2 3 3 4 4 5 5 5 5 5 5 4 5 6 7 7 8 8 8 8 9 9 9 10 10 11 12 12 12 12 12 12 12 12 12 13 13 14 14 15 15 16 16 16 17 17 17 18 18 18 19 19 19 20 20 20 21 21 21 21 21 21 21 21 21 20 20 20 20 20 20 20 20 20 20 20 21 21 21 22 22 22 22 22 23 23 24 26 26 25 25 25 24 24 24 24 24 24 24 25 26 27 27
4 4 4 5 5 6 6 5 5 5 5 5 5 6 7 7 7 7 8 8 9 9 9 10 10 11 12 12 12 12 11 11 11 12 12 13 13 14 14 15 15 16 16 16 16 17 17 18 18 19 19 19 20 20 21 21 21 21 21 21 21 21 21 21 21 21 20 20 21 21 20 20 20 20 21 21 21 21 21 21 22 22 22 22 23 23 24 25 26 25 24 24 23 23 23 23 23 23 23 23 23 24 25
5 5 5 5 6 5 5 5 5 5 5 5 6 6 6 7 7 7 8 8 9 9 9 10 10 11 11 11 10 10 9 9 10 10 11 12 12 13 13 13 14 14 14 14 15 15 15 16 16 17 18 19 20 20 21 21 22 21 21 21 21 21 22 22 22 22 21 21 21 21 21 21 21 21 21 21 21 21 21 21 22 22 22 22 23 23 24 24 25 25 24 23 22 22 23 23 23 23 22 22 22 23 23
5 5 5 5 5 5 5 5 5 6 6 5 5 5 6 6 7 7 8 8 8 8 9 9 9 9 9 9 8 8 7 8 8 9 9 11 11 11 11 11 11 12 12 12 12 13 13 13 14 15 16 17 18 18 19 19 20 20 20 20 20 20 21 21 21 22 22 21 21 21 22 22 22 22 22 22 22 22 22 22 22 22 22 22 23 23 23 23 24 24 24 23 22 22 23 23 23 23 23 23 23 23 22
4 4 4 5 5 5 4 4 5 5 5 4 4 5 6 6 6 7 7 7 7 7 7 7 7 7 7 7 6 6 6 7 7 8 8 9 10 10 10 10 10 11 11 11 12 12 12 12 13 13 14 15 15 16 16 16 16 16 17 17 18 18 18 18 19 19 20 20 20 21 22 22 23 23 23 23 23 22 22 22 22 22 22 22 23 23 23 23 23 23 23 22 21 21 22 22 23 23 23 23 23 23 23
3 3 3 3 4 4 3 3 3 3 3 3 3 4 5 5 5 5 5 5 5 5 5 6 6 6 6 6 6 6 6 7 7 8 8 9 10 10 10 10 11 11 12 12 12 12 13 13 13 13 14 14 15 15 15 14 14 15 15 15 16 16 16 16 17 17 17 18 18 19 20 21 22 22 22 23 23 23 23 23 22 22 22 23 23 23 23 23 23 23 22 22 21 20 20 20 20 21 22 22 23 24 24
1 1 2 2 2 1 1 1 2 2 3 3 3 4 4 4 4 4 4 4 5 5 5 5 6 6 6 6 7 7 7 7 8 9 9 10 10 11 11 11 12 12 13 13 13 13 14 14 14 15 15 15 16 16 15 14 14 15 15 15 15 16 16 16 16 16 16 16 16 17 18 18 19 19 20 21 22 22 23 23 23 23 23 23 23 23 23 23 23 22 22 22 21 21 20 21 21 21 22 23 24 25 25
0 0 0 1 2 3 3 4 4 4 4 3 4 4 4 4 4 4 4 5 5 5 5 5 6 6 7 7 8 8 9 9 9 10 10 11 11 12 12 12 13 13 13 14 15 15 15 15 16 16 17 17 17 17 17 17 16 16 16 16 16 16 16 16 16 15 15 15 15 15 16 17 18 18 18 19 19 20 21 21 22 22 22 23 22 22 21 21 21 21 21 21 20 20 20 21 22 23 24 25 26 27 27
2 2 2 3 4 4 4 4 4 4 4 4 4 4 4 4 4 4 5 5 5 5 5 6 6 7 8 9 9 10 10 11 11 11 11 12 12 12 13 13 14 14 14 15 16 16 17 17 17 18 18 18 18 18 19 18 18 17 16 16 16 15 15 15 14 14 14 14 14 14 15 16 17 17 17 17 17 17 17 18 19 18 18 18 18 18 18 19 19 20 21 21 20 19 19 21 22 23 23 24 25 26 27
3 4 4 4 4 4 4 4 4 4 4 4 5 5 5 5 4 4 5 5 5 6 6 7 8 9 9 10 11 11 12 12 12 12 13 13 13 13 13 14 14 15 15 16 16 17 17 18 18 19 19 19 19 19 19 18 18 17 16 16 15 15 14 14 13 13 13 13 14 14 15 16 16 17 17 17 16 15 15 15 15 16 16 16 17 17 17 18 19 20 21 21 21 20 21 21 22 22 22 22 23 24 24
5 5 5 5 4 4 4 4 4 4 4 5 5 5 6 5 5 5 5 6 7 7 8 8 9 10 11 11 11 12 12 12 13 13 13 13 13 14 14 15 15 15 16 16 16 17 18 18 19 19 19 19 19 19 19 18 17 17 16 15 15 14 14 13 13 13 13 13 14 14 15 16 17 17 18 18 17 16 14 15 16 16 16 16 16 16 16 17 17 17 17 18 18 19 20 20 21 21 22 22 22 23 23
6 6 6 6 5 4 5 5 5 6 5 5 5 5 5 5 5 6 6 6 7 8 8 9 10 11 11 11 12 12 12 12 13 13 13 13 14 14 15 15 15 16 16 16 17 17 18 18 19 19 19 19 18 18 18 17 17 16 16 15 14 14 14 14 14 14 14 14 15 15 16 17 17 18 18 18 18 17 17 17 17 17 16 16 17 17 17 17 17 16 16 16 17 17 18 19 20 21 21 21 22 22 22
7 7 7 7 6 5 5 6 6 6 5 5 5 5 5 5 5 5 6 6 7 7 9 10 10 11 11 11 11 11 11 12 12 13 13 13 14 14 15 15 16 16 16 16 17 17 18 18 18 18 18 18 17 16 16 16 16 16 15 15 15 15 14 14 14 15 15 15 16 16 17 17 18 18 18 19 18 17 17 17 17 17 17 18 18 18 17 17 17 17 17 17 17 18 19 20 20 20 20 21 22 22 22
8 8 8 7 6 5 5 6 6 5 5 4 4 4 5 5 5 5 6 6 7 8 9 10 11 11 11 11 11 11 12 12 13 13 13 14 14 15 15 16 16 16 16 17 17 17 17 18 17 17 17 16 15 15 15 15 15 15 15 15 16 16 16 16 16 16 16 17 17 18 18 18 19 19 19 19 19 18 18 17 17 18 18 18 18 18 18 18 18 19 19 19 19 20 20 21 21 21 22 22 22 22 23
8 8 8 7 6 6 6 6 5 5 4 4 4 4 4 5 6 6 7 7 8 9 10 11 11 12 12 12 12 12 13 13 14 14 14 15 15 16 16 16 16 17 17 17 17 17 17 17 17 16 16 15 15 15 14 15 15 16 16 17 17 17 17 17 17 17 17 18 18 19 19 19 19 20 20 20 19 19 18 18 18 17 17 17 17 18 18 19 19 20 20 21 21 22 22 22 23 23 23 23 23 23 24
8 7 7 7 7 7 6 6 5 4 4 4 4 4 5 6 7 8 8 9 10 11 12 12 12 12 12 12 13 14 15 15 16 16 16 16 16 16 17 17 17 17 17 17 17 17 17 16 16 16 16 15 15 15 15 15 16 17 17 17 18 18 18 18 18 18 18 19 19 19 20 20 20 20 20 20 20 19 18 18 17 17 17 17 18 18 19 19 20 21 21 22 23 23 23 24 24 24 24 24 24 24 24
8 8 8 8 7 7 7 6 5 4 3 4 4 5 7 7 8 9 10 10 11 11 12 12 12 11 12 13 14 15 16 16 17 17 18 17 17 17 17 17 17 17 16 16 16 16 16 16 16 16 16 15 14 14 15 15 16 17 18 18 18 18 18 19 19 19 19 20 20 20 20 20 20 20 21 21 20 20 19 18 18 18 18 19 19 20 20 20 21 22 22 23 23 24 24 24 25 25 25 25 25 25 25
8 8 9 8 8 7 7 5 4 4 3 4 5 6 7 8 9 9 10 11 11 11 11 12 11 11 12 13 14 15 16 16 17 17 17 17 18 18 18 17 17 16 15 15 15 15 16 16 17 17 16 15 14 14 15 16 17 17 18 18 18 18 18 19 20 20 21 21 21 21 21 21 21 21 22 22 21 20 19 19 19 19 20 20 21 21 21 22 22 23 23 23 24 24 25 25 25 25 25 25 25 25 25
8 8 8 8 7 7 6 4 3 3 3 4 5 6 7 8 9 10 10 11 11 11 11 11 12 13 14 14 14 15 15 16 16 17 17 17 18 18 18 17 16 15 14 14 14 15 16 17 18 17 16 14 14 14 16 18 19 19 18 18 18 18 19 20 21 21 22 22 22 22 22 22 22 23 23 23 22 21 21 21 21 21 22 22 22 22 23 23 24 24 24 25 25 25 25 25 26 26 26 26 25 25 25
7 7 7 7 6 5 4 3 2 2 3 4 6 6 7 8 9 10 10 10 10 10 11 11 13 14 15 15 15 15 16 15 16 17 17 17 18 18 18 17 16 14 13 13 14 15 16 17 18 17 15 14 14 15 18 19 20 20 19 18 18 18 19 20 21 22 22 23 23 23 23 23 24 24 24 24 23 23 23 23 23 24 24 24 24 24 24 24 25 25 25 26 26 26 26 26 26 26 26 25 25 25 25
7 6 6 5 4 3 3 2 2 2 3 4 6 6 7 8 9 9 9 9 9 10 10 11 12 14 15 16 16 16 16 16 16 17 17 18 18 18 17 16 15 13 12 13 13 14 16 17 17 16 14 14 15 17 20 21 21 20 19 19 19 19 20 21 22 23 23 23 23 24 24 24 25 25 25 25 25 24 24 25 25 26 26 26 26 25 25 26 26 26 26 26 26 26 26 26 26 26 25 25 25 25 25
6 5 5 4 3 3 2 2 3 3 3 4 5 6 7 8 8 8 8 8 9 9 10 11 12 13 14 15 16 16 17 18 18 17 18 18 18 17 17 15 14 13 11 12 13 14 16 17 16 14 13 14 17 20 21 22 22 21 20 19 19 20 21 22 23 23 24 24 24 24 25 25 26 26 26 26 26 26 26 27 27 28 28 28 28 28 28 28 27 27 27 27 26 26 26 26 26 25 25 25 25 25 26
6 5 4 4 3 2 2 2 2 3 4 4 5 6 6 7 7 7 8 8 8 9 10 11 12 13 14 15 16 17 18 18 18 18 18 18 18 17 16 15 13 12 11 12 13 14 16 16 14 13 13 15 19 22 23 23 22 20 19 19 20 20 21 22 23 24 24 24 24 25 25 26 26 27 27 27 27 28 28 29 29 30 30 31 31 30 30 30 29 29 28 27 27 27 26 26 26 26 26 25 25 26 26
7 6 5 4 4 3 2 2 2 3 3 4 4 5 5 6 7 7 8 8 9 9 10 10 11 12 13 14 15 16 17 17 18 18 18 18 17 17 16 15 13 11 11 12 13 14 15 15 13 12 13 16 20 22 23 23 21 20 19 19 20 21 22 22 23 24 24 24 25 25 26 26 27 27 28 28 28 29 30 30 31 32 32 32 32 32 32 31 30 29 29 28 27 27 27 26 26 26 26 26 26 26 26
8 7 6 5 4 3 3 2 2 3 3 3 4 4 5 6 6 7 8 9 9 9 10 11 11 11 12 13 14 15 15 16 17 17 17 17 16 16 15 14 12 11 10 12 13 14 14 13 12 12 14 17 20 22 23 21 19 18 18 19 20 20 21 22 23 23 24 24 25 25 26 26 27 27 27 28 28 29 30 31 32 32 32 32 32 32 31 30 30 29 28 27 27 27 27 26 27 26 27 27 26 26 26
8 7 6 5 4 4 3 3 2 2 3 3 4 5 6 7 7 8 9 9 9 10 10 10 11 12 12 12 13 13 15 16 17 17 16 16 15 14 14 13 12 10 9 11 12 13 13 12 11 12 14 17 20 22 21 19 17 17 18 18 19 20 21 22 22 23 23 24 24 25 25 26 26 26 27 27 28 29 30 31 31 31 31 31 31 30 30 29 28 28 27 26 26 26 26 26 27 27 27 27 27 27 26
9 8 7 5 4 4 3 3 2 2 3 4 5 6 7 7 7 8 8 9 9 9 9 10 11 11 12 12 12 13 14 16 17 16 15 15 15 13 12 12 11 9 8 10 11 11 11 10 10 11 14 17 20 22 20 17 15 16 17 18 19 20 21 21 22 22 23 23 24 24 25 25 26 26 27 27 28 29 29 30 30 30 30 30 30 30 29 29 28 28 27 26 26 26 27 27 27 27 27 27 27 27 26
8 8 7 5 4 4 3 3 2 2 3 4 6 6 6 6 7 7 7 7 8 8 8 9 10 11 12 12 13 13 14 15 16 16 14 14 14 14 13 12 10 9 8 10 10 10 8 8 8 11 14 19 22 21 17 15 15 16 17 18 19 20 21 21 22 22 22 23 23 24 24 25 25 26 27 28 28 29 29 29 29 29 30 30 30 30 29 29 29 28 28 27 27 27 27 27 27 27 27 27 27 27 26
8 7 6 5 4 4 3 3 3 3 3 4 5 5 5 5 5 6 6 7 7 8 8 8 9 10 11 12 12 12 13 15 16 16 14 13 11 9 9 10 9 9 8 10 10 8 6 6 7 11 16 21 22 20 16 15 15 16 17 18 19 20 21 21 21 22 22 23 24 24 24 25 25 26 27 28 29 29 29 29 28 29 29 30 30 29 29 29 29 29 29 29 28 28 28 28 28 28 27 27 27 26 26
7 6 6 5 5 4 4 3 3 3 4 4 4 4 4 4 5 5 6 7 8 8 9 9 9 9 10 11 11 12 13 14 16 16 12 12 11 8 5 5 6 8 10 11 10 6 4 4 8 14 19 22 21 18 15 14 15 16 17 18 19 20 20 21 21 22 23 23 24 24 24 25 26 27 28 29 29 29 28 28 28 28 29 29 29 29 29 29 29 29 30 30 30 30 29 28 28 27 27 27 26 26 25
7 6 6 5 5 4 3 3 3 3 3 3 2 3 3 4 5 6 7 8 9 9 9 10 10 10 10 10 10 11 12 13 15 15 13 12 13 12 9 5 4 4 5 8 8 5 3 5 10 16 21 21 19 16 14 14 15 17 18 19 19 19 20 20 21 22 23 24 24 24 25 26 27 28 28 29 28 28 27 27 27 28 28 28 28 28 28 28 29 30 31 31 31 31 30 29 28 27 26 26 25 25 24
7 6 5 5 4 3 3 2 2 2 2 2 3 4 4 5 6 7 7 8 9 9 9 9 10 11 10 10 11 11 11 13 14 14 14 14 13 11 8 4 3 3 4 5 5 4 3 7 13 19 21 19 16 14 13 15 16 17 18 18 19 19 19 20 21 22 23 23 24 25 25 26 27 28 28 28 27 27 27 27 27 27 27 27 28 28 28 28 29 30 30 31 31 30 29 28 27 26 25 25 24 24 24
6 6 5 5 4 3 2 2 2 2 2 3 4 4 5 6 7 7 8 8 9 10 10 10 10 10 11 11 11 11 11 12 13 13 13 15 14 9 4 2 1 2 1 1 3 5 3 5 12 19 20 16 13 13 14 15 17 17 18 18 18 19 19 20 21 22 23 23 24 25 26 27 28 28 27 27 27 27 27 26 26 26 26 27 27 27 28 28 29 30 30 30 29 29 28 27 26 25 24 24 24 24 24
6 5 5 4 3 3 2 2 2 2 3 3 4 5 5 6 7 8 8 9 9 9 10 10 10 11 12 11 11 11 11 12 13 13 12 13 14 11 4 2 3 3 1 1 1 2 4 7 13 18 17 13 13 14 16 16 17 17 17 18 18 19 20 21 21 22 23 23 24 25 26 27 27 27 26 26 26 26 26 26 26 26 26 26 27 27 28 28 29 29 29 29 28 28 27 26 25 24 24 24 24 25 25
5 4 4 4 3 3 2 2 2 2 3 4 5 5 6 6 7 7 8 8 8 9 10 11 11 11 11 10 10 10 11 12 13 12 11 11 12 12 11 6 3 3 4 3 2 2 3 9 9 6 11 12 14 15 17 17 17 17 17 18 19 19 20 21 21 22 23 24 25 26 26 26 26 26 26 26 26 26 26 26 26 26 26 26 27 28 28 29 29 28 28 28 27 27 27 26 25 24 24 25 25 26 26
4 4 3 3 3 2 2 2 2 3 4 5 5 6 6 6 6 7 7 8 9 9 10 11 11 11 11 11 11 11 12 13 14 13 11 9 9 11 11 9 5 1 1 2 2 4 7 13 9 5 9 15 15 15 16 17 17 17 18 18 19 20 20 21 22 23 24 25 26 26 26 25 25 25 25 26 26 26 26 26 26 26 26 27 27 28 28 28 28 28 27 27 26 26 26 25 24 24 25 25 26 26 27
3 3 3 2 2 3 3 3 3 3 4 5 6 6 6 6 6 7 8 8 9 9 10 10 11 11 12 12 11 12 13 14 15 14 12 9 8 10 11 9 7 5 4 3 4 6 5 5 3 4 7 12 15 15 14 15 17 18 18 19 20 20 21 22 23 24 25 25 26 26 25 24 24 24 25 26 26 26 26 26 26 26 26 27 28 28 28 28 27 27 27 27 27 26 26 25 24 24 25 26 26 27 27
2 2 2 2 2 3 3 4 4 4 4 5 6 6 6 6 7 7 8 8 8 9 10 11 11 12 12 12 12 13 14 14 14 15 14 10 9 10 11 10 9 8 7 8 9 9 7 3 3 4 6 8 13 16 17 15 15 18 19 20 20 20 21 22 23 24 25 25 25 25 25 25 24 25 25 26 26 26 26 26 26 26 27 27 28 28 28 28 27 27 27 27 26 25 25 25 24 24 25 25 26 27 28
2 1 2 2 2 3 4 4 4 4 5 5 6 6 6 7 7 7 7 8 8 9 10 11 11 12 12 12 12 13 14 14 14 14 14 10 10 11 12 11 10 9 9 9 10 11 10 8 6 5 4 6 8 12 14 17 17 18 19 20 20 21 22 23 24 24 24 24 24 24 24 25 25 25 25 25 26 26 26 26 26 27 27 28 28 28 28 28 28 27 26 25 25 24 24 24 24 24 24 25 26 27 28
1 1 2 2 3 3 3 4 4 5 5 6 6 6 6 7 7 7 8 8 9 10 10 11 11 12 12 12 12 13 13 13 14 14 14 12 11 12 13 12 11 11 10 10 10 11 11 12 13 11 7 4 5 7 10 13 17 19 19 19 20 21 23 23 23 23 23 23 23 24 24 25 26 26 25 25 26 26 26 27 27 27 28 28 28 29 28 28 27 26 25 24 24 24 24 23 23 23 23 24 26 27 28
Wind_Direction
200 214 227 226 216 212 213 213 210 203 199 205 221 250 266 278 287 293 298 306 314 319 319 315 308 303 299 297 298 299 298 297 298 299 298 299 300 301 300 297 292 289 288 287 288 289 289 291 294 299 304 305 305 302 299 295 290 282 274 268 267 271 274 271 262 256 259 266 269 268 265 260 257 254 252 248 246 247 250 254 257 260 261 260 259 256 253 250 248 247 246 246 246 245 245 246 246 247 249 250 251 250 250
203 211 222 221 210 206 211 215 221 232 248 257 258 260 271 281 288 294 298 304 312 319 321 316 310 306 304 301 299 298 298 297 297 296 295 294 296 299 301 300 295 290 289 288 288 289 290 292 296 301 305 307 307 304 300 296 291 284 276 269 266 267 269 269 268 267 267 269 271 270 267 264 261 259 257 253 249 248 252 255 258 261 262 261 260 259 256 254 252 250 249 249 249 249 249 248 248 248 248 248 249 249 251
206 209 216 215 206 203 210 219 231 249 263 265 261 260 268 282 288 288 291 298 303 306 306 303 302 302 301 300 299 298 298 298 297 297 296 292 291 292 295 296 294 291 289 289 289 290 291 292 296 300 304 306 307 305 302 298 293 286 279 272 269 268 269 271 273 276 277 277 276 273 269 266 263 260 258 256 254 252 253 255 260 264 265 264 264 264 262 260 257 255 254 253 253 252 252 251 251 251 250 249 248 249 249
203 204 211 217 216 214 217 225 237 251 261 263 265 265 269 277 281 283 283 286 288 290 292 295 298 299 298 297 297 296 295 296 296 297 297 293 289 286 285 287 289 289 290 290 291 291 292 293 295 298 301 303 305 305 303 300 296 290 284 278 274 272 270 270 271 274 278 282 282 278 274 269 265 261 259 258 256 256 256 257 261 265 266 266 267 267 268 265 262 260 260 258 256 256 255 255 254 254 254 252 250 249 249
202 207 215 227 231 232 234 237 241 246 254 258 263 269 271 272 273 274 275 277 281 286 291 296 298 298 298 297 296 294 293 292 293 294 294 293 289 283 280 279 282 286 288 289 289 290 291 293 295 297 300 302 303 304 303 302 300 295 289 284 280 277 275 273 270 271 274 279 281 281 278 274 269 264 261 259 258 257 258 260 263 265 267 269 269 268 268 266 265 263 262 261 259 259 258 257 257 256 256 256 253 251 250
211 221 231 236 239 242 245 248 248 248 252 256 261 265 268 267 267 268 272 277 283 288 293 296 297 297 297 296 294 293 290 289 288 288 289 290 287 281 276 274 276 280 282 283 284 286 288 291 293 296 299 300 302 303 303 303 301 298 295 291 287 284 282 279 275 272 272 275 278 280 280 278 274 269 265 261 259 259 260 262 264 266 266 267 268 268 268 266 265 264 264 263 262 261 260 260 259 258 258 258 256 254 252
221 234 245 247 247 249 252 258 260 260 261 263 260 260 265 265 267 272 277 281 285 290 293 294 294 294 293 292 292 292 290 288 286 286 287 287 286 283 278 274 274 275 276 278 280 282 285 288 292 295 297 299 301 302 302 302 302 300 299 297 295 293 290 286 281 275 272 272 275 277 278 279 277 274 269 265 262 261 262 263 265 267 267 267 267 268 268 268 267 266 265 264 263 262 262 262 262 262 261 260 258 257 256
231 244 254 258 260 262 267 271 270 268 268 268 267 265 266 270 274 279 282 285 287 290 292 292 292 291 291 292 292 292 291 290 290 290 288 287 287 286 284 281 278 277 277 278 280 282 285 287 290 293 296 298 299 301 302 302 302 303 303 302 302 300 297 291 285 278 273 271 273 275 277 278 277 275 272 268 265 264 263 264 265 267 267 268 268 268 268 268 268 268 267 266 265 264 263 263 263 262 262 261 260 259 258
243 254 261 266 270 275 281 278 269 265 267 270 272 274 276 279 281 284 286 287 289 290 291 291 291 292 293 293 293 294 293 293 292 291 290 290 289 288 287 286 285 284 283 283 284 285 287 288 290 293 295 297 299 301 303 304 306 307 308 308 308 306 302 296 290 281 275 271 271 273 276 277 277 277 275 271 268 266 265 265 266 267 267 268 268 268 268 268 269 269 269 268 267 265 264 263 263 263 262 261 261 261 261
252 261 266 270 274 279 285 281 272 266 268 272 276 279 282 284 285 286 288 288 289 290 291 292 292 293 293 293 295 296 296 295 294 292 292 292 290 289 288 289 289 289 289 289 290 291 292 291 292 293 295 297 301 304 307 309 312 313 313 314 313 310 306 300 293 285 277 272 270 271 274 276 277 277 276 274 271 269 268 267 268 268 268 268 268 268 268 268 268 269 269 269 269 268 267 266 265 264 263 262 261 261 262
257 264 268 272 275 278 284 287 283 279 277 278 281 284 286 287 288 289 291 292 294 295 296 295 295 295 295 297 299 301 300 300 299 297 295 294 294 294 294 294 294 295 296 297 298 297 297 294 293 293 296 299 303 307 310 314 317 319 318 318 318 314 309 302 295 288 282 277 273 272 273 276 278 278 278 276 274 272 271 270 269 269 269 270 270 270 270 270 270 269 269 269 270 270 269 268 267 265 265 264 263 262 262
259 266 270 272 274 276 281 285 287 286 284 283 284 287 289 290 293 296 299 302 303 304 304 302 301 302 303 306 308 308 308 308 307 306 304 303 304 304 305 305 305 306 306 306 305 302 299 295 294 294 297 299 303 306 310 314 317 320 321 321 320 317 310 302 295 290 285 281 277 276 276 278 279 280 279 278 276 275 274 274 274 274 273 275 276 276 275 276 274 273 273 272 271 271 271 270 269 268 266 266 265 264 263
258 263 267 269 271 274 277 281 284 286 286 286 287 289 292 296 301 307 312 314 314 313 311 311 314 317 319 320 320 319 318 317 316 316 316 317 317 318 318 319 319 319 317 314 308 303 298 295 295 296 297 299 301 304 308 311 313 316 318 319 319 316 310 302 295 289 284 281 278 277 278 280 281 281 280 279 278 278 279 279 279 279 279 279 280 281 281 281 280 279 278 276 274 273 272 271 271 270 268 268 267 267 266
253 257 261 265 269 273 276 281 285 288 290 290 292 295 301 308 316 321 324 325 324 321 320 321 326 329 330 330 328 326 324 323 324 324 326 327 328 329 329 329 329 327 322 315 308 303 301 300 300 300 300 301 303 306 308 309 311 313 315 316 315 313 309 304 297 291 284 280 277 278 280 284 284 282 280 279 279 280 281 282 283 283 283 282 282 283 283 283 282 282 281 279 278 276 274 273 272 271 270 269 269 268 268
248 252 257 263 269 276 282 288 291 293 296 299 302 308 315 321 325 328 330 331 331 330 329 330 332 333 333 332 330 327 325 325 326 328 329 330 331 331 331 330 328 324 317 311 308 308 308 308 307 306 306 307 309 310 311 311 312 313 315 315 314 313 310 307 302 295 288 283 283 284 285 286 286 283 280 279 279 279 280 282 283 284 283 284 284 284 284 284 284 283 282 281 280 278 276 275 274 273 272 271 270 269 269
243 247 254 262 271 281 288 289 293 296 304 308 314 319 323 324 326 329 332 335 336 336 335 334 333 333 333 332 330 327 326 326 327 328 328 328 327 327 326 325 322 317 312 310 312 314 314 314 314 313 314 315 315 316 316 315 315 316 317 317 317 314 312 308 302 295 289 287 289 290 289 288 287 285 282 280 279 279 280 281 282 282 283 283 283 284 285 285 284 284 282 281 280 279 278 277 276 274 273 272 271 270 269
239 244 252 263 276 283 282 278 284 297 309 314 318 322 324 323 326 330 334 337 338 338 337 335 334 334 333 333 331 329 327 328 327 326 326 325 325 324 324 323 320 316 313 314 315 317 317 317 316 316 317 318 319 319 319 318 317 319 320 320 319 316 313 309 303 295 289 293 295 295 294 293 292 290 287 285 284 283 283 284 285 285 284 283 283 284 285 286 285 284 282 281 280 280 279 278 277 276 275 273 272 271 270
238 246 258 272 281 279 269 268 278 294 309 315 320 323 324 324 326 331 334 336 338 338 337 336 336 336 336 336 334 332 331 329 328 326 326 326 326 326 326 325 323 321 319 319 319 318 318 316 316 316 317 317 318 319 319 318 319 319 320 320 319 317 314 311 304 297 295 298 300 300 300 299 298 296 294 292 290 289 288 289 290 289 288 287 287 287 288 287 286 284 282 281 280 280 279 279 278 277 276 274 273 272 271
258 266 274 281 278 272 268 271 276 287 300 313 321 324 325 327 331 333 334 335 337 338 338 337 338 338 339 339 338 336 334 332 330 329 329 329 330 331 332 332 331 329 328 327 325 323 320 318 316 316 316 317 318 318 318 318 318 319 320 320 319 317 314 312 306 301 301 303 303 302 302 302 301 299 298 297 295 293 292 291 290 290 290 291 291 292 291 289 287 285 283 282 281 280 280 280 280 279 278 276 275 273 272
282 284 283 280 277 277 278 277 278 283 294 309 320 325 328 332 334 337 338 338 338 339 339 339 340 341 342 342 340 339 338 336 335 334 335 336 338 339 339 339 338 338 336 335 333 330 327 324 321 319 318 317 318 317 316 316 317 318 319 318 318 316 314 312 308 305 304 304 303 302 302 302 301 299 298 298 297 295 294 292 292 291 292 293 293 293 291 289 288 287 288 288 287 286 285 284 283 282 281 280 278 276 274
280 282 285 288 289 290 290 288 285 288 298 312 323 329 332 335 337 339 341 342 341 341 342 343 344 344 345 344 342 341 341 341 340 340 341 342 344 344 343 343 342 341 339 338 337 335 333 331 328 325 322 321 319 318 317 317 317 318 318 317 317 316 314 311 308 306 306 304 302 302 302 301 301 300 299 298 297 296 295 294 294 294 294 293 292 292 291 290 290 292 293 294 294 294 293 292 290 288 286 284 282 280 278
277 283 290 296 300 301 301 298 296 298 308 322 328 332 335 338 340 341 343 343 343 344 345 346 347 347 345 344 343 342 342 341 341 341 341 343 344 344 344 343 342 340 338 337 336 335 334 332 330 327 325 322 321 319 318 318 318 318 318 317 316 314 313 311 308 305 304 302 302 302 301 301 301 300 299 298 298 297 296 295 294 294 292 291 291 290 291 293 294 296 298 299 300 300 300 299 297 295 292 287 284 282 280
275 282 290 296 301 306 309 308 306 307 317 324 328 332 337 341 342 344 345 344 344 345 346 347 346 346 344 343 342 342 342 340 339 340 341 343 344 344 344 343 341 339 337 336 335 333 333 331 329 326 324 322 320 319 318 317 317 317 316 316 314 313 311 310 307 304 302 301 301 300 300 300 299 299 299 298 297 297 296 294 293 292 291 290 290 290 291 295 297 298 299 300 301 302 303 302 301 299 295 290 287 284 282
272 279 286 294 301 308 316 317 314 315 319 323 326 330 335 339 342 344 345 344 344 345 345 346 346 344 342 343 343 343 341 341 341 342 345 347 347 347 346 343 341 339 337 336 335 334 333 331 330 328 326 324 322 321 319 318 317 316 315 315 314 313 312 311 309 306 303 302 301 300 299 299 298 298 297 296 296 295 294 293 292 291 290 289 290 290 291 294 297 298 299 299 301 302 303 303 302 301 298 296 293 291 288
272 278 284 293 301 310 318 318 317 318 321 323 325 328 332 337 343 346 345 344 344 344 346 348 347 344 343 345 346 346 345 347 350 352 352 352 350 347 343 340 339 338 337 336 336 336 336 336 337 337 336 334 333 331 329 327 324 322 320 319 318 318 317 316 313 310 306 304 302 301 300 299 298 297 297 296 294 293 293 292 291 290 290 289 288 289 290 292 294 296 298 299 301 302 302 302 302 302 300 299 298 296 295
273 281 289 298 305 310 313 315 316 320 324 326 326 327 330 338 344 346 345 343 343 344 347 348 347 345 347 350 350 348 347 347 349 353 354 351 347 343 338 336 335 335 335 336 336 338 340 342 344 346 348 349 349 349 347 343 338 335 334 333 332 330 328 326 324 322 318 312 308 306 304 303 301 299 297 296 294 293 293 292 291 291 290 289 288 288 289 289 290 293 295 297 299 299 299 299 300 299 299 299 298 297 296
276 289 298 305 306 305 306 312 324 338 349 351 346 341 338 343 346 348 349 349 348 348 349 350 351 351 353 351 349 346 343 342 343 344 345 344 341 337 335 333 332 332 334 335 337 339 342 345 347 350 352 354 356 357 356 351 349 350 350 349 347 345 342 340 338 337 334 329 323 318 316 313 310 306 303 300 297 295 294 292 291 291 290 289 288 287 287 287 288 290 292 294 295 295 296 296 295 295 296 295 295 295 294
282 297 306 307 308 314 352 62 69 64 56 42 21 359 345 345 349 357 5 7 5 0 357 355 355 355 354 350 346 341 338 337 337 338 340 339 336 333 332 332 332 333 334 335 337 339 340 343 345 347 348 350 352 352 351 349 351 355 357 356 355 352 350 348 347 346 345 343 340 337 334 331 327 322 317 312 307 303 299 295 293 292 291 290 290 289 290 290 290 291 292 292 292 293 295 296 297 298 297 296 295 294 294
229 177 97 86 79 79 86 92 88 79 65 43 22 2 345 343 349 3 16 16 12 7 3 360 356 354 352 348 343 338 335 333 332 331 329 329 330 330 330 331 332 332 333 335 337 338 339 340 342 343 344 345 346 346 346 347 349 352 354 355 355 355 354 353 352 352 351 351 350 350 349 348 345 340 334 328 321 315 310 305 301 298 297 296 297 299 301 301 301 301 301 298 295 294 296 300 303 304 305 304 303 301 299
170 143 126 111 96 89 89 91 82 66 45 23 13 12 11 3 3 13 19 19 16 10 1 355 351 347 346 344 342 340 337 333 329 326 325 326 327 328 328 330 331 331 332 334 336 337 338 339 340 342 343 343 343 343 344 345 347 349 352 355 357 358 358 358 358 357 356 356 356 357 356 356 354 351 347 342 337 331 325 321 318 318 320 321 323 325 324 323 322 320 318 314 310 308 310 312 315 316 316 316 314 312 308
150 142 139 124 105 91 86 82 68 51 32 21 24 33 34 30 29 29 25 21 15 8 358 351 346 344 344 343 343 343 339 335 331 328 326 325 326 327 329 331 331 331 332 333 333 334 335 337 338 340 342 342 342 343 344 345 347 350 353 356 359 2 2 2 2 2 1 1 2 2 2 2 2 2 1 357 353 349 344 339 343 348 349 347 346 345 343 341 338 334 332 331 330 328 327 328 331 333 331 330 328 324 318
136 135 136 128 110 87 78 73 63 53 50 46 45 44 44 41 39 36 29 22 16 9 0 354 349 347 345 345 344 343 341 338 335 332 330 328 328 329 330 331 331 330 331 330 330 331 332 333 336 338 339 340 341 343 344 347 350 353 356 359 3 5 6 5 5 5 5 4 5 5 6 5 5 6 7 7 5 3 359 359 360 358 353 347 344 345 346 346 343 338 335 333 331 331 334 339 343 344 342 339 336 331 328
128 125 121 117 107 87 72 72 70 66 61 54 47 43 42 39 34 28 22 18 13 7 359 354 351 349 347 346 345 343 342 341 339 336 334 334 334 334 333 332 331 331 330 330 330 331 331 333 334 336 336 338 340 342 346 350 354 357 360 2 5 6 7 6 6 6 6 4 4 3 3 2 2 3 4 6 6 5 5 2 360 356 351 346 344 345 346 344 342 338 335 333 334 336 339 344 346 346 344 341 338 336 333
123 117 112 109 102 88 75 72 71 68 61 54 44 37 31 26 19 12 7 4 0 356 353 352 350 349 348 348 346 343 343 343 342 341 339 339 339 339 337 336 334 334 333 333 333 333 333 335 336 337 337 338 340 343 349 355 360 2 3 5 6 6 6 5 5 5 5 4 2 1 0 359 358 357 357 359 0 1 1 359 358 356 353 352 350 349 346 343 341 339 338 336 336 337 340 343 344 344 342 340 338 335 332
118 111 106 103 97 88 83 75 71 67 60 51 40 29 19 11 2 355 349 345 344 346 349 349 349 349 349 348 345 343 344 345 343 342 343 344 344 343 342 342 341 339 337 336 335 336 337 339 341 342 343 344 347 351 357 3 5 4 5 5 5 5 5 4 4 4 4 4 2 1 359 358 356 355 354 355 356 357 358 358 358 356 354 352 350 347 345 342 341 340 339 338 338 338 338 339 339 339 338 337 336 335 333
113 105 99 97 93 90 88 82 75 67 59 47 34 22 11 4 356 350 345 344 344 347 349 350 351 352 351 349 349 350 350 348 347 347 349 351 350 348 347 346 345 343 341 339 338 339 342 345 348 350 352 355 1 7 8 7 5 3 3 3 4 4 4 3 2 2 2 2 1 0 359 356 355 353 352 352 353 355 357 358 358 355 352 349 347 345 343 341 340 339 338 337 337 336 336 336 336 335 335 334 333 332 332
108 101 98 97 96 94 91 85 78 67 53 40 27 17 10 6 2 359 356 354 354 355 354 355 358 359 358 360 3 4 360 356 354 355 355 354 352 350 349 348 346 345 343 341 340 342 347 351 354 357 1 4 8 10 8 4 2 1 1 2 4 5 5 4 2 0 359 359 359 358 357 355 353 351 350 351 353 355 357 358 356 354 351 348 346 343 341 340 339 338 336 336 335 335 334 334 334 333 332 331 331 330 330
104 101 99 99 98 94 90 84 77 67 50 34 24 17 14 12 10 8 6 5 4 2 359 2 5 7 8 11 12 10 6 3 2 2 359 356 353 352 352 350 348 345 343 341 341 345 352 356 358 1 5 6 7 6 2 359 357 358 359 2 5 6 5 3 1 359 357 357 356 355 354 352 351 349 349 351 354 355 355 354 352 349 347 347 345 343 341 340 338 337 336 335 334 333 333 332 331 330 329 329 329 329 329
102 99 96 94 91 87 83 79 74 64 45 32 24 18 13 13 14 14 14 15 13 10 7 8 10 13 15 15 13 10 8 7 6 5 2 359 356 353 351 350 347 345 342 341 342 348 355 358 0 2 5 5 4 1 357 355 355 356 358 2 5 6 4 2 360 358 356 355 353 352 351 350 348 348 349 351 352 352 352 350 347 344 343 342 342 342 342 340 338 337 335 334 333 332 331 330 329 328 327 327 328 328 327
99 93 87 83 78 75 74 75 72 60 41 29 22 16 11 11 15 19 20 21 22 21 19 16 16 18 19 16 12 9 8 7 6 4 2 359 356 353 350 349 347 345 343 343 345 350 355 358 359 1 2 2 360 355 353 353 354 355 357 1 3 4 2 360 358 357 355 353 352 350 348 347 347 347 347 349 349 349 347 345 343 341 340 340 340 340 340 338 337 335 334 332 331 330 329 328 327 326 326 326 326 326 326
93 84 77 72 67 63 59 58 51 37 28 21 18 15 13 15 19 22 24 25 29 32 31 26 23 23 22 18 14 10 8 6 5 4 1 358 355 352 349 348 347 346 345 345 347 350 354 355 356 358 359 357 355 352 352 353 354 355 356 359 0 0 359 357 356 355 354 352 350 348 346 345 345 345 345 346 346 345 343 341 340 339 338 338 338 338 338 337 335 333 332 331 331 330 328 327 326 326 326 326 326 326 326
87 79 72 68 63 53 36 22 0 349 1 11 14 17 20 25 26 25 25 27 33 38 37 34 30 27 24 21 17 13 9 7 5 3 360 356 353 351 349 349 348 347 346 345 346 347 350 352 353 354 354 353 352 352 353 353 353 354 355 356 357 357 355 354 353 353 352 350 349 347 345 344 343 342 342 342 342 341 339 338 337 336 336 335 335 335 334 334 334 333 331 330 330 330 328 327 326 326 326 325 325 325 325
86 81 77 73 66 51 25 2 341 336 348 7 19 25 31 34 33 31 30 30 34 38 39 36 32 28 25 23 20 16 11 8 5 2 358 354 352 350 350 350 348 347 346 344 343 344 347 348 350 352 352 352 352 353 353 352 352 353 353 354 353 353 352 351 350 349 348 347 346 345 344 341 340 339 339 338 337 336 335 334 333 332 332 331 331 331 331 331 332 332 331 330 330 329 328 327 326 326 325 325 325 324 324
94 92 88 84 76 64 37 5 345 341 351 12 27 35 40 40 38 37 35 33 32 34 36 34 32 28 25 23 21 18 13 8 3 359 356 353 351 350 350 350 348 346 345 342 340 340 343 345 347 349 351 353 354 353 352 350 350 351 351 351 350 349 348 347 346 345 344 343 342 341 340 339 337 336 335 334 333 331 330 329 329 328 328 327 327 328 328 329 329 330 330 331 330 329 328 327 327 326 325 324 324 324 323
98 98 96 91 87 77 60 28 0 356 6 21 34 42 44 44 41 39 38 36 32 30 30 29 29 28 26 24 21 18 14 8 2 357 354 352 350 349 348 348 346 344 342 340 338 338 340 342 345 348 351 354 354 352 349 348 347 347 347 347 346 345 343 342 341 339 338 338 337 337 336 335 334 333 332 331 330 328 327 326 325 325 325 325 325 325 326 327 328 328 329 330 330 330 328 327 326 325 325 324 323 323 323
98 98 97 95 91 81 70 49 19 11 20 31 41 46 47 43 39 36 35 34 31 28 24 21 21 23 25 24 22 18 13 6 1 356 354 351 349 347 345 345 344 342 339 337 335 335 338 340 343 347 352 352 351 348 346 344 344 343 343 343 342 339 338 336 335 335 334 333 333 333 332 331 330 330 329 329 328 327 325 324 324 324 324 324 325 325 326 327 327 328 328 329 329 328 327 326 325 325 324 323 323 322 322
98 99 99 98 94 88 78 64 41 28 29 39 47 49 49 43 37 32 29 28 27 25 21 16 15 16 19 21 21 18 12 6 0 356 353 350 347 344 341 340 341 341 338 334 333 333 335 337 342 346 348 347 345 343 342 342 343 343 342 339 336 334 332 331 331 331 330 329 329 328 328 327 327 327 327 328 327 327 325 324 324 324 325 325 325 325 326 326 327 327 328 328 328 327 325 324 324 323 323 322 322 321 320
98 99 100 100 100 98 89 76 58 43 40 47 53 54 51 44 38 33 28 24 22 21 19 16 13 13 14 17 19 18 13 6 2 357 352 348 345 344 341 338 337 339 339 334 332 332 333 334 339 343 342 341 340 339 341 342 342 341 338 334 331 329 328 328 328 328 327 326 325 325 325 324 324 324 325 326 326 326 326 325 325 325 325 325 325 325 325 326 326 326 326 327 326 325 324 323 323 322 322 321 320 319 319
99 100 102 105 109 110 103 88 70 55 53 56 59 58 53 46 40 35 28 23 19 16 15 16 16 14 13 15 17 17 14 8 3 360 355 351 347 343 343 341 338 336 337 335 333 331 328 328 335 340 338 337 336 337 339 340 338 335 332 329 327 325 326 326 326 326 324 323 323 322 322 322 322 322 323 324 324 325 325 325 325 324 324 324 324 324 325 324 324 324 324 325 325 324 324 323 322 321 320 319 318 318 317
101 104 107 111 115 116 111 97 81 68 64 64 65 63 56 47 38 31 25 19 14 10 10 15 18 18 16 15 17 17 15 10 6 3 1 359 352 342 340 338 336 336 336 334 334 329 320 321 334 338 336 334 334 335 336 335 332 329 326 325 324 323 324 324 325 324 323 322 321 320 320 320 320 321 322 322 323 323 323 323 323 323 323 323 323 324 323 323 323 322 322 322 322 323 323 322 321 320 319 318 317 317 316
104 105 109 113 115 114 109 101 89 78 72 73 72 66 52 39 30 24 18 15 13 10 10 14 18 19 18 18 19 19 17 14 12 10 4 359 351 339 321 313 320 333 339 338 336 329 307 316 332 334 333 332 332 332 332 330 327 324 322 321 321 321 322 323 323 322 321 320 319 318 319 319 319 319 320 321 321 321 321 321 321 321 321 322 322 322 322 321 321 320 320 320 320 320 321 321 321 320 319 318 317 316 315
105 103 104 107 109 108 107 105 95 83 74 73 66 53 37 29 23 20 15 13 14 14 14 16 17 18 19 20 21 23 21 19 18 17 11 358 349 344 336 336 339 339 338 338 336 331 318 326 331 331 330 329 328 327 327 325 322 320 320 319 319 320 320 321 320 320 318 318 317 317 317 317 318 318 319 319 319 319 319 319 319 319 319 320 319 319 319 318 318 318 317 317 317 318 319 319 320 320 319 318 316 316 315
104 101 99 99 99 102 108 108 94 76 55 41 36 34 27 22 21 19 14 14 15 18 19 18 17 18 19 20 21 23 23 22 22 21 18 11 1 353 355 13 11 340 335 335 328 322 338 339 332 328 326 324 323 322 322 320 319 318 318 318 317 317 317 317 317 316 316 316 316 316 316 316 317 317 317 317 317 317 317 317 318 318 317 317 317 316 316 316 316 315 315 316 316 317 318 319 319 319 318 317 316 315 314
102 98 95 93 94 98 101 93 76 52 31 25 24 25 22 20 19 17 15 15 17 18 20 20 18 18 20 19 19 20 21 23 24 24 23 21 19 13 357 2 315 272 243 7 334 325 328 343 330 323 320 321 321 320 319 318 317 317 317 316 315 314 314 314 314 314 314 314 315 315 315 315 315 316 316 316 315 315 315 315 315 315 315 315 314 314 314 314 314 314 314 315 316 317 318 318 318 318 317 316 315 314 313
102 101 97 92 91 88 81 70 53 38 25 18 18 19 19 19 18 17 16 17 18 18 18 20 20 21 22 17 14 15 17 21 24 26 26 24 27 31 24 331 311 317 335 68 33 325 319 331 325 319 317 323 326 322 319 317 316 316 315 314 314 313 313 313 313 313 313 313 313 314 314 314 314 314 314 313 313 313 313 314 314 314 313 313 312 312 312 312 312 313 314 314 315 316 316 316 316 316 316 315 314 313 312
105 104 101 92 81 72 66 56 44 34 23 14 12 12 15 16 15 14 16 19 20 19 18 17 19 22 22 16 11 9 11 15 20 25 27 25 25 27 28 27 12 351 347 345 334 313 314 328 324 309 314 324 326 321 316 316 316 315 314 313 313 313 313 312 312 312 312 312 312 312 312 312 312 312 311 311 311 311 312 312 312 312 311 311 311 310 311 311 312 312 313 313 313 314 314 314 315 315 315 314 313 312 311
110 105 97 86 70 54 42 34 29 24 18 12 9 7 6 4 6 10 14 18 20 21 18 16 17 19 19 16 12 8 9 10 13 17 23 23 19 18 22 30 44 66 333 304 306 314 318 329 329 310 311 317 317 314 313 314 314 314 313 313 313 312 312 311 311 310 310 311 310 310 310 310 310 310 309 310 310 310 310 310 310 310 310 309 309 309 309 310 310 311 311 311 311 312 312 313 314 314 314 314 313 312 311
115 100 88 75 53 34 23 16 12 10 9 5 3 358 353 355 1 7 10 13 15 17 17 16 15 15 15 13 10 8 9 9 8 8 11 15 13 10 10 11 9 355 320 284 292 307 315 330 324 307 310 314 313 312 313 313 314 313 313 313 312 312 311 310 310 310 309 309 309 309 309 308 308 308 308 308 308 308 308 308 308 308 308 308 308 308 308 308 308 309 309 309 310 310 311 312 313 314 314 314 313 313 312
112 93 75 56 35 22 14 7 3 1 1 358 353 350 349 354 0 4 6 8 9 11 12 14 15 14 12 10 8 8 9 8 6 4 3 2 3 3 1 356 350 341 327 314 309 308 309 313 313 312 317 315 315 315 315 313 312 313 312 312 312 312 311 310 310 309 308 308 308 308 308 308 307 307 307 306 306 306 306 307 307 307 307 306 306 307 306 307 307 308 308 308 308 309 310 311 313 314 314 314 313 313 313
103 76 52 34 21 14 10 5 3 2 0 356 352 350 352 356 358 358 359 2 4 6 9 11 13 13 11 8 7 8 7 4 3 3 3 358 352 352 354 349 343 335 327 320 315 312 306 295 290 298 309 309 311 314 313 312 312 311 310 310 312 312 311 309 308 307 307 307 307 307 307 307 307 306 306 306 306 306 305 305 305 305 305 305 305 305 306 306 307 307 307 307 307 308 310 311 313 314 315 315 314 313 312
83 53 29 18 9 3 1 3 6 6 6 2 359 356 355 354 353 353 354 356 359 2 5 7 9 11 11 9 7 6 3 0 359 1 1 357 348 345 347 345 340 334 328 323 320 315 309 301 295 291 287 291 299 303 306 310 313 313 310 310 311 311 308 307 306 306 305 306 306 306 305 305 305 305 305 305 305 304 304 303 303 303 303 304 304 305 305 306 306 306 306 306 308 309 311 312 313 315 316 316 314 312 311